FW8377 Weather Reports


Display with metric or nautical units.
time (UTC)temp
F
wind
direction
speed
MPH
gust
MPH
rain 1hr
in
rain 24hr
in
rain mn
in
humidity
%
barometer
mb
20260507073559 63 269 2.0 4.0 0.00 0.41 0.22 80 1017.1
20260507072558 63 250 2.0 5.0 0.00 0.41 0.22 82 1017.2
20260507071617 63 117 3.0 6.0 0.00 0.41 0.22 82 1017.3
20260507070556 61 152 1.0 7.0 0.00 0.41 0.22 83 1017.3
20260507065555 61 172 2.0 5.0 0.00 0.41 0.22 84 1017.2
20260507064553 61 180 2.0 5.0 0.00 0.42 0.22 86 1017.0
20260507063552 60 139 2.0 6.0 0.00 0.42 0.22 87 1017.1
20260507062550 59 120 2.0 6.0 0.00 0.42 0.22 90 1016.9
20260507061549 59 98 2.0 4.0 0.00 0.42 0.22 91 1017.0
20260507060548 58 129 1.0 4.0 0.00 0.43 0.22 92 1017.1
20260507055547 58 91 1.0 3.0 0.00 0.44 0.22 94 1017.0
20260507054547 58 41 2.0 4.0 0.00 0.45 0.22 94 1016.9
20260507053545 57 78 1.0 3.0 0.00 0.46 0.22 96 1016.9
20260507052544 57 192 0.0 2.0 0.00 0.48 0.22 97 1016.8
20260507051543 56 46 1.0 3.0 0.00 0.49 0.22 98 1016.8
20260507050543 58 14 1.0 3.0 0.00 0.49 0.22 99 1016.6
20260507045600 56 307 0.0 3.0 0.00 0.49 0.22 99 1016.6
20260507041539 56 56 1.0 2.0 0.00 0.49 0.22 99 1016.7
20260507040534 56 44 2.0 3.0 0.00 0.49 0.22 99 1016.6
20260507035535 56 28 2.0 3.0 0.00 0.49 0.22 99 1016.6
20260507034532 56 33 2.0 4.0 0.00 0.49 0.22 99 1016.7
20260507033531 56 35 1.0 4.0 0.00 0.49 0.22 99 1016.5
20260507032530 56 47 2.0 4.0 0.00 0.49 0.22 99 1016.5
20260507031529 56 8 3.0 4.0 0.00 0.49 0.22 99 1016.4
20260507030527 56 17 3.0 4.0 0.02 0.49 0.22 99 1016.6
20260507025527 56 27 3.0 4.0 0.03 0.49 0.22 99 1016.6
20260507024526 56 11 2.0 3.0 0.04 0.49 0.22 98 1016.7
20260507023525 56 353 1.0 2.0 0.04 0.49 0.22 98 1016.7
20260507022524 56 15 1.0 3.0 0.04 0.49 0.22 98 1016.9
20260507021522 56 12 2.0 3.0 0.04 0.49 0.21 98 1016.7
20260507020521 56 352 2.0 4.0 0.02 0.47 0.20 98 1016.8
20260507015540 56 9 2.0 4.0 0.01 0.46 0.19 98 1016.7
20260507014519 57 6 2.0 4.0 0.03 0.45 0.18 98 1016.6
20260507013518 57 350 2.0 4.0 0.06 0.45 0.18 97 1016.4
20260507012517 57 330 2.0 7.0 0.07 0.45 0.18 97 1016.4
20260507011516 57 27 1.0 3.0 0.10 0.45 0.18 97 1016.6
20260507010627 57 69 2.0 4.0 0.13 0.45 0.18 97 1016.7
20260507005634 57 68 2.0 5.0 0.15 0.45 0.17 96 1016.7
20260507004612 57 93 4.0 8.0 0.12 0.42 0.15 96 1016.9
20260507003611 57 59 3.0 7.0 0.10 0.40 0.12 96 1017.0
20260507002610 57 73 3.0 6.0 0.08 0.38 0.10 95 1016.8
20260507001609 58 73 4.0 9.0 0.05 0.35 0.07 95 1016.7
20260507000608 58 89 6.0 16.0 0.02 0.32 0.04 95 1016.6
20260506235608 58 68 3.0 6.0 0.00 0.30 0.02 96 1016.8
20260506234605 58 30 1.0 4.0 0.00 0.30 0.02 97 1016.7
20260506233623 58 160 3.0 5.0 0.00 0.30 0.02 97 1016.7
20260506232622 58 146 2.0 5.0 0.00 0.30 0.02 97 1016.6
20260506231601 58 122 2.0 7.0 0.01 0.30 0.02 97 1016.5
20260506230600 58 163 2.0 5.0 0.01 0.30 0.02 97 1016.5
20260506225619 58 0.0 3.0 0.03 0.30 0.02 96 1016.5
20260506224618 58 313 1.0 2.0 0.04 0.30 0.02 95 1016.4
20260506223556 58 0.0 4.0 0.07 0.30 0.02 94 1016.4
20260506222636 58 59 3.0 6.0 0.06 0.30 0.02 94 1016.4
20260506221555 58 56 4.0 6.0 0.06 0.29 0.02 94 1016.5
20260506220554 58 63 7.0 10.0 0.06 0.29 0.01 94 1016.5
20260506215553 58 41 5.0 8.0 0.04 0.27 0.27 95 1016.5
20260506214552 58 45 5.0 10.0 0.03 0.26 0.26 96 1016.6
20260506213551 59 53 4.0 7.0 0.02 0.23 0.23 96 1016.5
20260506212550 59 50 7.0 10.0 0.02 0.23 0.23 97 1016.7
20260506211548 59 50 6.0 10.0 0.02 0.23 0.23 97 1016.7
20260506210607 59 44 5.0 8.0 0.02 0.23 0.23 97 1016.8
20260506205546 59 26 5.0 8.0 0.02 0.23 0.23 98 1016.7
20260506204545 59 42 4.0 6.0 0.01 0.23 0.23 98 1016.7
20260506203545 60 40 3.0 4.0 0.00 0.22 0.22 98 1016.7
20260506202542 60 30 2.0 3.0 0.00 0.22 0.22 98 1016.6
20260506201543 60 53 1.0 3.0 0.00 0.22 0.22 98 1016.7
20260506200540 60 86 0.0 2.0 0.00 0.22 0.22 98 1016.6
20260506195559 60 33 1.0 2.0 0.00 0.22 0.22 97 1016.5
20260506194557 60 308 0.0 2.0 0.00 0.22 0.22 97 1016.6
20260506193537 60 33 2.0 3.0 0.00 0.22 0.22 97 1016.6
20260506192535 60 0 2.0 3.0 0.01 0.22 0.22 97 1016.5
20260506191535 60 10 1.0 3.0 0.02 0.22 0.22 97 1016.4
20260506190533 60 332 2.0 5.0 0.06 0.22 0.22 97 1016.5
20260506185530 60 316 2.0 4.0 0.11 0.22 0.22 97 1016.3
20260506184529 60 296 2.0 5.0 0.13 0.22 0.22 96 1016.2
20260506183528 60 26 3.0 6.0 0.13 0.21 0.21 96 1016.2
20260506182526 60 41 4.0 7.0 0.12 0.20 0.20 96 1016.1
20260506181525 60 34 4.0 6.0 0.11 0.20 0.20 95 1016.1
20260506180523 61 32 6.0 10.0 0.08 0.16 0.16 94 1016.3
20260506175522 62 27 8.0 13.0 0.02 0.10 0.10 90 1016.1
20260506174521 62 26 5.0 9.0 0.01 0.09 0.09 89 1015.8
20260506173540 62 41 4.0 6.0 0.01 0.09 0.09 88 1015.7
20260506172519 63 69 7.0 13.0 0.00 0.08 0.08 84 1015.8
20260506171517 64 39 5.0 9.0 0.00 0.08 0.08 78 1015.7
20260506170535 64 16 9.0 15.0 0.00 0.08 0.08 76 1015.7
20260506165615 65 24 8.0 18.0 0.00 0.08 0.08 76 1015.6
20260506164614 65 12 8.0 14.0 0.00 0.08 0.08 75 1015.6
20260506163612 65 19 8.0 15.0 0.00 0.08 0.08 75 1015.7
20260506162631 66 26 9.0 14.0 0.00 0.08 0.08 74 1015.5
20260506161610 66 15 11.0 19.0 0.00 0.08 0.08 72 1015.6
20260506160609 66 12 12.0 18.0 0.00 0.08 0.08 71 1015.7
20260506155607 66 7 11.0 20.0 0.00 0.08 0.08 70 1015.7
20260506154606 66 19 12.0 21.0 0.00 0.08 0.08 71 1015.6
20260506153605 66 25 11.0 18.0 0.00 0.08 0.08 71 1015.8
20260506152604 66 23 10.0 17.0 0.00 0.08 0.08 71 1015.7
20260506151643 66 16 12.0 21.0 0.00 0.08 0.08 71 1015.6
20260506150601 67 19 11.0 19.0 0.00 0.08 0.08 70 1015.5
20260506145559 66 33 11.0 23.0 0.00 0.08 0.08 71 1015.7
20260506144558 66 29 12.0 24.0 0.00 0.08 0.08 70 1015.7
20260506143557 66 30 11.0 20.0 0.00 0.08 0.08 71 1015.7
20260506142556 67 32 14.0 23.0 0.00 0.08 0.08 69 1015.7
20260506141615 67 45 14.0 25.0 0.00 0.08 0.08 68 1015.7
20260506140614 68 30 13.0 23.0 0.00 0.08 0.08 65 1015.6
20260506135552 68 26 11.0 19.0 0.00 0.08 0.08 65 1015.6
20260506134551 69 33 12.0 29.0 0.00 0.08 0.08 63 1015.5
20260506133550 69 25 13.0 23.0 0.00 0.08 0.08 62 1015.5
20260506132549 68 27 14.0 22.0 0.00 0.08 0.08 63 1015.4
20260506131548 68 54 13.0 20.0 0.00 0.08 0.08 62 1015.5
20260506130607 70 41 12.0 19.0 0.00 0.08 0.08 62 1015.7
20260506125546 69 27 7.0 17.0 0.00 0.08 0.08 64 1015.8
20260506124624 69 29 13.0 19.0 0.00 0.08 0.08 62 1015.9
20260506123543 70 41 13.0 17.0 0.00 0.08 0.08 59 1015.9
20260506122542 70 19 13.0 21.0 0.00 0.08 0.08 55 1015.9
20260506121541 71 12 11.0 18.0 0.00 0.08 0.08 54 1015.8
20260506120539 71 22 10.0 19.0 0.00 0.08 0.08 53 1015.8
20260506115538 70 16 11.0 24.0 0.00 0.08 0.08 52 1016.0
20260506114537 70 33 14.0 23.0 0.00 0.08 0.08 52 1015.9
20260506113536 69 27 12.0 22.0 0.00 0.08 0.08 55 1016.0
20260506112535 70 36 11.0 21.0 0.00 0.08 0.08 54 1016.0
20260506111534 69 6 11.0 18.0 0.00 0.08 0.08 60 1015.9
20260506110533 69 15 10.0 16.0 0.00 0.08 0.08 60 1016.0
20260506105531 69 14 13.0 19.0 0.00 0.08 0.08 59 1016.1
20260506104531 69 12 14.0 21.0 0.00 0.08 0.08 60 1016.3
20260506103530 69 14 9.0 22.0 0.00 0.08 0.08 65 1016.2
20260506102529 68 18 16.0 22.0 0.00 0.08 0.08 66 1016.3
20260506101528 67 10 12.0 18.0 0.00 0.08 0.08 68 1016.0
20260506100527 66 348 5.0 12.0 0.00 0.08 0.08 73 1016.2
20260506095526 66 352 8.0 14.0 0.00 0.08 0.08 74 1016.3
20260506094525 66 8 6.0 10.0 0.00 0.08 0.08 76 1016.1
20260506093524 65 358 9.0 13.0 0.00 0.08 0.08 76 1016.4
20260506092522 65 345 4.0 8.0 0.00 0.08 0.08 76 1016.3
20260506091520 65 6 5.0 11.0 0.00 0.08 0.08 76 1016.3
20260506090539 63 20 3.0 5.0 0.00 0.08 0.08 78 1016.2
20260506085518 63 34 3.0 6.0 0.00 0.08 0.08 79 1016.0
20260506084517 62 52 2.0 6.0 0.00 0.08 0.08 80 1016.1
20260506083515 63 8 3.0 6.0 0.00 0.08 0.08 81 1015.9
20260506082634 62 21 3.0 5.0 0.00 0.08 0.08 80 1015.8
20260506081613 62 33 1.0 3.0 0.00 0.08 0.08 81 1015.8
20260506080632 62 352 1.0 3.0 0.00 0.08 0.08 82 1015.9